Probability
0 0 0 0 0 0 0 0 0 0 0 0 0 0 0 0 0 0 0 0 0 0 0 0 0 0 0 0 0 0 0 0 0 0 0 0 0 0 0 0 0 0 0
0 0 0 0 0 0 0 0 0 0 0 0 0 0 0 0 0 0 0 0 0 0 0 0 0 0 0 0 0 0 0 0 0 0 0 0 0 0 0 0 0 0 0
0 0 0 0 0 0 0 0 0 0 0 0 0 0 0 0 0 0 0 0 0 0 0 0 0 0 0 0 0 0 0 0 0 0 0 0 0 0 0 0 0 0 0
0 0 0 0 0 0 0 0 0 0 0 0 0 0 0 0 0 0 0 0 0 0 0 0 0 0 0 0 0 0 0 0 0 0 0 0 0 0 0 0 0 0 0
0 0 0 0 0 0 0 0 0 0 0 0 0 0 0 0 0 0 0 0 0 0 0 0 0 0 0 0 0 0 0 0 0 0 0 0 0 0 0 0 0 0 0
0 0 0 0 0 0 0 0 0 0 0 0 0 0 0 0 0 0 0 0 0 0 0 0 0 0 0 0 0 0 0 0 0 0 0 0 0 0 0 0 0 0 0
0 0 0 0 0 0 0 0 0 0 0 0 0 0 0 0 0 0 0 0 0 0 0 0 0 0 0 0 0 0 0 0 0 0 0 0 0 0 0 0 0 0 0
3 3 0 0 0 0 0 0 0 0 0 0 0 0 0 0 0 0 0 0 0 0 0 0 0 0 0 0 0 0 0 0 0 0 0 0 0 0 0 0 0 0 0
3 3 3 3 0 0 0 0 0 0 0 0 0 0 0 0 0 0 0 0 0 0 0 0 0 0 0 0 0 0 0 0 0 0 0 0 0 0 0 0 0 0 0
3 3 3 3 0 0 0 0 0 0 0 0 0 0 0 0 0 0 0 0 0 0 0 0 0 0 0 0 0 0 0 0 0 0 0 0 0 0 0 0 0 0 0
0 3 3 3 3 0 0 0 0 0 0 0 0 0 0 0 0 0 0 0 0 0 0 0 0 0 0 0 0 0 0 0 0 0 0 0 0 0 0 0 0 0 0
0 0 0 3 3 3 0 0 0 0 0 0 0 0 0 0 0 0 0 0 0 0 0 0 0 0 0 0 0 0 0 0 0 0 0 0 0 0 0 0 0 0 0
0 0 0 0 3 3 0 0 0 0 0 0 0 0 0 0 0 0 0 0 0 0 0 0 0 0 0 0 0 0 0 0 0 0 0 0 0 0 0 0 0 0 0
0 0 0 0 0 0 3 0 0 0 0 0 0 0 0 0 0 0 0 0 0 0 0 0 0 0 0 0 0 0 0 0 0 0 0 0 0 0 0 0 0 0 0
0 0 0 0 0 0 0 0 0 0 0 0 0 0 0 0 0 0 0 0 0 0 0 0 0 0 0 0 0 0 0 0 0 0 0 0 0 0 0 0 0 0 0
0 0 0 0 0 0 0 0 0 0 0 0 0 0 0 0 0 0 0 0 0 0 0 0 0 0 0 0 0 0 0 0 0 0 0 0 0 0 0 0 0 0 0
0 0 0 0 0 0 0 0 0 0 0 0 0 0 0 0 0 0 0 0 0 0 0 0 0 0 0 0 0 0 0 0 0 0 0 0 0 0 0 0 0 0 0
0 0 0 0 0 0 0 0 0 0 0 0 0 0 0 0 0 0 0 0 0 0 0 0 0 0 0 0 0 0 0 0 0 0 0 0 0 0 0 0 0 0 0
0 0 0 0 0 0 0 0 0 0 0 0 0 0 0 0 0 0 0 0 0 0 0 0 0 0 0 0 0 0 0 0 0 0 0 0 0 0 0 0 0 0 0
0 0 0 0 0 0 0 0 0 0 0 0 0 0 0 0 0 0 0 0 0 0 0 0 0 0 0 0 0 0 0 0 0 0 0 0 0 0 0 0 0 0 0
0 0 0 0 0 0 0 0 0 0 0 0 0 0 0 0 0 0 0 0 0 0 0 0 0 0 0 0 0 0 0 0 0 0 0 0 0 0 0 0 0 0 0
0 0 0 0 0 0 0 0 0 0 0 0 0 0 0 0 0 0 0 0 0 0 0 0 0 0 0 0 0 0 0 0 0 0 0 0 0 0 0 0 0 0 0
0 0 0 0 0 0 0 0 0 0 0 0 0 0 0 0 0 0 0 0 0 0 0 0 0 0 0 0 0 0 0 0 0 0 0 0 0 0 0 0 0 0 0
0 0 0 0 0 0 0 0 0 0 0 0 0 0 0 0 0 0 0 0 0 0 0 0 0 0 0 0 0 0 0 0 0 0 0 0 0 0 0 0 0 0 0
0 0 0 0 0 0 0 0 0 0 0 0 0 0 0 0 0 0 0 0 0 0 0 0 0 0 0 0 0 0 0 0 0 0 0 0 0 0 0 0 0 0 0
0 0 0 0 0 0 0 0 0 0 0 0 0 0 0 0 0 0 0 0 0 0 0 0 0 0 0 0 0 0 0 0 0 0 0 0 0 0 0 0 0 0 0
Height
5841 5841 5842 5842 5843 5843 5843 5844 5844 5845 5845 5845 5845 5845 5846 5846 5846 5846 5846 5845 5845 5845 5844 5844 5844 5843 5842 5842 5841 5840 5839 5838 5836 5835 5833 5832 5831 5829 5827 5826 5824 5822 5820
5838 5838 5838 5838 5839 5839 5839 5840 5841 5841 5841 5842 5842 5842 5842 5842 5842 5842 5842 5842 5842 5842 5841 5841 5840 5840 5839 5838 5837 5836 5835 5834 5833 5831 5830 5828 5826 5825 5823 5821 5819 5818 5815
5834 5834 5834 5835 5835 5835 5836 5836 5837 5837 5838 5838 5838 5839 5839 5839 5839 5839 5839 5839 5838 5838 5838 5837 5836 5836 5835 5834 5833 5832 5831 5830 5828 5827 5825 5824 5822 5820 5818 5816 5814 5813 5810
5830 5830 5831 5831 5831 5831 5832 5832 5833 5833 5834 5834 5834 5834 5835 5835 5835 5835 5835 5835 5834 5834 5834 5833 5832 5831 5831 5830 5828 5827 5826 5825 5824 5822 5821 5819 5817 5815 5813 5811 5809 5807 5805
5826 5826 5826 5827 5826 5827 5827 5828 5829 5829 5829 5830 5830 5830 5830 5830 5831 5831 5831 5830 5830 5830 5829 5828 5828 5827 5826 5825 5824 5822 5821 5820 5818 5817 5815 5814 5812 5810 5808 5806 5804 5801 5799
5821 5821 5822 5822 5822 5822 5823 5824 5824 5824 5825 5825 5825 5826 5826 5826 5826 5826 5826 5826 5825 5825 5824 5824 5823 5822 5821 5820 5819 5817 5816 5814 5813 5811 5810 5808 5806 5804 5802 5800 5798 5796 5793
5817 5817 5817 5817 5817 5818 5818 5819 5819 5819 5820 5820 5821 5821 5821 5821 5821 5821 5821 5821 5821 5820 5819 5819 5818 5817 5816 5815 5813 5812 5810 5808 5807 5806 5804 5803 5801 5798 5796 5794 5792 5789 5787
5811 5812 5812 5812 5812 5812 5813 5813 5814 5814 5815 5815 5816 5816 5816 5816 5816 5816 5816 5816 5815 5815 5814 5814 5813 5812 5810 5809 5808 5806 5804 5803 5801 5800 5798 5796 5794 5792 5790 5788 5785 5782 5779
5806 5806 5806 5806 5807 5807 5807 5808 5809 5809 5810 5810 5810 5811 5811 5811 5811 5811 5811 5810 5810 5809 5808 5808 5807 5806 5805 5804 5802 5801 5799 5797 5795 5793 5792 5789 5787 5785 5782 5780 5778 5775 5772
5801 5801 5801 5801 5801 5801 5801 5802 5802 5803 5804 5804 5805 5805 5805 5806 5806 5806 5805 5805 5805 5804 5803 5802 5801 5800 5799 5798 5797 5795 5793 5792 5789 5787 5785 5783 5780 5777 5775 5773 5770 5767 5764
5795 5795 5795 5795 5795 5795 5796 5796 5796 5797 5797 5798 5799 5799 5799 5800 5800 5800 5799 5799 5799 5798 5797 5796 5795 5794 5793 5792 5790 5789 5787 5785 5783 5781 5778 5776 5773 5770 5767 5765 5762 5759 5755
5788 5789 5789 5789 5789 5790 5790 5790 5790 5791 5791 5792 5792 5793 5793 5793 5793 5793 5793 5793 5792 5792 5791 5790 5789 5788 5787 5785 5784 5782 5780 5778 5776 5774 5771 5768 5766 5763 5760 5756 5753 5750 5746
5782 5782 5783 5783 5783 5784 5784 5784 5785 5785 5785 5785 5786 5786 5787 5787 5787 5787 5787 5786 5786 5785 5785 5784 5783 5781 5780 5779 5777 5775 5773 5771 5769 5766 5764 5761 5758 5755 5752 5748 5745 5741 5737
5775 5775 5776 5776 5777 5777 5778 5778 5778 5779 5779 5779 5779 5780 5780 5780 5781 5780 5780 5780 5780 5779 5778 5777 5776 5775 5773 5772 5770 5768 5766 5764 5762 5759 5756 5753 5750 5747 5744 5740 5736 5732 5728
5767 5768 5769 5769 5770 5771 5771 5772 5772 5773 5773 5773 5773 5774 5774 5774 5774 5774 5774 5774 5773 5772 5772 5771 5770 5768 5767 5765 5763 5761 5759 5757 5754 5752 5749 5746 5742 5739 5736 5732 5728 5723 5719
5760 5761 5761 5762 5763 5764 5764 5765 5765 5766 5766 5766 5767 5767 5767 5767 5767 5767 5767 5767 5766 5766 5765 5764 5763 5761 5760 5758 5756 5754 5752 5749 5746 5743 5740 5737 5734 5730 5727 5723 5719 5714 5710
5753 5754 5754 5755 5756 5756 5757 5758 5759 5760 5760 5760 5760 5760 5760 5760 5760 5760 5760 5760 5759 5758 5758 5757 5756 5754 5752 5750 5748 5746 5744 5741 5738 5735 5732 5728 5725 5721 5718 5714 5709 5705 5700
5746 5746 5747 5748 5748 5749 5750 5751 5752 5752 5753 5753 5753 5753 5753 5753 5753 5753 5753 5752 5752 5751 5750 5749 5748 5747 5745 5742 5740 5738 5735 5732 5729 5726 5723 5719 5716 5712 5709 5704 5700 5695 5690
5739 5739 5739 5740 5741 5742 5743 5744 5744 5745 5745 5746 5746 5746 5745 5745 5745 5745 5745 5744 5743 5743 5742 5741 5740 5738 5736 5734 5731 5729 5726 5723 5720 5717 5713 5710 5706 5703 5699 5694 5690 5685 5680
5731 5732 5732 5733 5734 5734 5735 5736 5737 5737 5737 5738 5738 5738 5737 5737 5737 5737 5736 5736 5735 5734 5733 5732 5731 5729 5727 5725 5722 5720 5717 5714 5711 5707 5704 5700 5697 5693 5689 5684 5679 5674 5669
5724 5724 5725 5726 5726 5727 5728 5728 5729 5729 5729 5729 5729 5729 5729 5729 5729 5728 5728 5727 5726 5725 5724 5723 5721 5720 5717 5715 5712 5710 5707 5704 5701 5697 5694 5690 5686 5682 5678 5673 5668 5663 5658
5716 5716 5717 5718 5719 5719 5720 5720 5720 5721 5721 5721 5721 5720 5720 5720 5720 5719 5719 5718 5717 5716 5714 5713 5711 5709 5707 5705 5702 5700 5697 5693 5690 5687 5683 5680 5676 5671 5667 5662 5657 5652 5646
5708 5708 5709 5709 5710 5711 5711 5712 5712 5712 5712 5712 5711 5711 5711 5711 5710 5710 5709 5708 5707 5706 5704 5703 5701 5699 5697 5694 5691 5688 5686 5683 5679 5676 5672 5668 5664 5660 5655 5650 5645 5640 5634
5699 5699 5700 5700 5701 5701 5702 5702 5702 5702 5702 5702 5702 5702 5701 5701 5700 5700 5699 5698 5697 5695 5694 5692 5690 5688 5686 5683 5680 5677 5674 5671 5668 5664 5660 5656 5652 5648 5643 5638 5633 5628 5622
5690 5690 5690 5691 5691 5692 5692 5692 5692 5692 5692 5692 5692 5692 5691 5691 5690 5689 5688 5687 5686 5684 5683 5681 5679 5677 5674 5671 5668 5665 5662 5659 5656 5652 5648 5644 5640 5636 5631 5626 5621 5616 5610
5680 5680 5681 5681 5681 5681 5682 5682 5682 5682 5682 5682 5682 5682 5681 5680 5679 5678 5677 5676 5675 5673 5671 5670 5667 5665 5662 5659 5656 5653 5650 5647 5643 5640 5636 5632 5628 5623 5618 5613 5608 5603 5598
Wind_Speed
13 13 13 14 14 14 13 13 13 12 12 11 11 11 11 11 11 11 11 11 11 11 12 12 11 12 12 13 13 13 14 14 14 14 15 15 15 16 16 16 16 17 18
14 14 14 14 14 14 14 14 13 13 12 12 12 12 12 12 12 12 12 12 12 12 13 13 13 13 14 15 14 14 15 15 15 16 16 16 16 17 17 17 17 18 18
15 15 15 14 14 14 15 15 14 14 13 12 13 12 13 13 12 13 13 13 13 13 14 14 14 15 15 15 15 16 16 16 16 16 17 17 18 18 19 19 19 20 21
15 15 15 15 15 15 14 15 14 14 14 14 13 13 14 14 14 14 14 15 15 15 15 15 16 16 16 16 17 17 17 17 17 18 18 19 19 19 20 20 21 22 23
16 15 15 15 15 15 15 15 15 15 15 14 14 15 15 14 14 15 15 16 16 16 16 16 16 17 17 17 17 18 18 18 19 19 19 20 20 20 21 21 22 23 24
16 16 16 16 16 16 16 16 16 16 16 16 15 15 15 15 15 15 15 16 17 17 17 17 18 17 17 18 18 18 19 20 20 20 20 20 21 21 22 22 23 24 25
17 17 17 17 17 17 17 17 17 17 17 16 16 16 16 16 17 17 16 16 17 18 18 19 18 18 19 19 20 20 20 20 20 21 21 22 23 23 24 24 25 26 26
17 17 17 17 17 17 18 18 18 18 18 18 18 18 18 18 18 18 18 19 18 19 19 19 19 20 20 19 19 20 20 21 21 21 22 23 24 25 25 25 26 27 28
16 16 17 17 18 18 19 19 20 19 18 18 19 19 19 19 20 19 19 19 19 19 19 20 20 19 19 19 20 20 21 22 22 22 23 24 25 25 26 27 27 29 30
17 17 18 18 19 19 19 19 19 19 19 19 19 19 20 20 20 20 20 20 20 20 20 20 20 20 20 20 21 21 22 23 24 24 25 25 26 26 27 28 29 30 32
19 19 19 18 18 18 19 19 20 20 19 20 20 20 20 20 20 21 21 21 21 21 21 21 21 20 20 21 22 22 23 24 24 25 26 26 27 28 28 30 31 32 33
20 19 19 19 19 19 18 19 19 20 20 20 20 20 21 21 21 21 22 21 22 22 22 22 22 22 22 23 23 24 25 25 26 27 27 28 29 29 30 31 32 34 35
21 21 20 20 19 19 19 19 19 19 20 21 21 21 21 21 21 21 21 22 22 22 21 22 22 23 23 23 24 24 25 26 26 27 27 28 29 30 31 32 33 34 35
21 21 21 21 20 20 20 20 19 19 20 20 21 21 20 20 20 21 22 22 21 21 21 22 22 22 23 23 24 25 25 26 27 27 28 29 29 30 31 32 33 35 36
21 21 22 21 21 21 21 21 21 21 20 21 21 21 21 20 21 21 22 22 21 22 22 22 22 22 23 24 25 26 26 27 28 29 30 30 31 31 32 33 35 36 36
21 21 22 22 22 22 22 22 22 22 21 21 21 21 22 22 22 22 23 23 23 23 23 23 23 24 24 26 27 27 28 28 29 30 31 31 32 32 33 34 36 37 38
22 21 22 22 22 22 22 23 23 23 22 22 23 23 23 23 23 23 23 23 23 23 24 25 25 25 26 27 27 28 29 30 31 31 31 32 32 33 34 35 37 38 39
22 22 22 21 21 21 22 22 23 23 23 23 24 23 24 24 24 24 24 24 24 25 25 26 26 26 27 28 29 30 30 31 32 32 33 33 33 34 36 37 38 39 40
22 21 22 22 22 22 22 23 23 23 23 23 24 24 24 25 25 26 26 26 26 26 26 27 27 28 29 29 30 31 32 33 33 33 34 34 35 36 37 38 39 40 41
22 22 22 22 22 22 23 23 23 23 24 24 24 25 26 26 26 26 27 27 27 27 28 28 28 29 30 31 32 32 33 33 34 34 34 35 36 37 38 39 40 41 42
23 23 23 23 23 23 23 24 24 24 24 25 25 26 26 27 27 27 28 28 28 28 29 30 30 31 32 32 33 33 34 34 35 35 35 36 38 39 40 41 42 43 43
24 24 24 25 25 25 25 26 26 25 26 26 26 27 27 27 28 28 28 28 29 30 31 31 32 33 33 34 34 35 36 36 36 37 38 39 40 41 42 42 43 44 44
25 25 26 27 27 27 27 27 27 27 28 28 28 29 29 29 29 30 30 30 31 32 32 33 33 34 35 35 36 37 38 37 38 38 39 40 40 41 42 43 43 44 44
26 27 27 27 28 29 29 29 29 29 29 29 30 30 30 31 31 31 31 32 32 33 33 33 34 34 35 36 37 37 38 38 38 38 39 40 41 42 43 43 43 44 44
27 27 27 27 28 29 30 30 30 30 30 30 30 31 31 32 32 32 32 33 33 33 34 34 35 35 36 37 37 38 38 38 38 39 40 41 42 43 43 44 44 44 44
28 28 28 28 29 29 30 30 30 29 30 30 30 31 31 32 33 33 33 34 34 35 35 35 36 37 37 38 38 38 38 39 40 41 41 42 43 44 44 45 45 45 45
Wind_Direction
258 256 256 256 255 254 254 254 257 259 259 260 260 262 266 266 265 265 267 269 272 274 276 279 284 285 287 289 288 288 289 291 291 289 290 292 293 295 296 296 296 297 299
258 258 257 258 257 254 254 254 254 256 258 260 261 263 266 266 265 264 265 268 273 275 277 279 281 285 288 289 287 288 289 290 291 289 289 291 294 294 295 295 295 298 299
261 260 259 259 258 257 255 257 257 255 256 260 260 262 264 265 265 266 267 267 271 275 276 278 281 284 287 287 287 289 289 290 290 289 290 293 293 294 295 295 295 297 299
262 261 260 258 257 257 256 256 256 256 258 261 261 263 264 263 265 268 268 268 270 273 276 279 283 285 285 286 287 288 288 288 290 291 291 292 292 293 295 295 295 297 300
262 260 260 260 258 258 255 254 256 258 260 262 263 264 265 263 265 267 271 272 273 275 277 279 283 284 285 286 288 288 288 288 289 290 292 292 293 293 294 295 295 297 299
262 260 260 260 258 257 254 254 257 259 261 262 263 264 264 265 267 268 271 271 273 275 276 279 283 285 287 289 289 289 288 289 287 288 290 291 293 293 293 293 295 297 299
261 259 260 259 256 254 253 255 256 258 260 258 261 261 264 266 268 270 272 272 274 276 279 280 282 284 286 289 290 290 289 288 287 287 290 291 291 292 293 293 295 296 298
261 260 262 260 258 257 256 255 256 258 260 258 258 259 262 267 267 268 271 274 277 278 279 281 283 284 285 287 289 291 291 290 290 289 290 291 292 292 294 294 295 297 298
261 263 265 263 261 259 257 257 258 258 259 257 259 261 263 266 269 271 274 277 278 279 280 281 283 284 284 287 289 291 291 289 289 290 292 293 294 294 294 294 295 297 299
260 261 264 266 263 261 259 258 258 258 258 258 260 262 263 266 269 272 274 277 278 279 281 284 283 283 285 288 289 290 291 292 291 291 293 294 294 295 295 296 297 297 298
261 261 263 265 264 261 260 258 257 258 259 260 260 261 263 265 268 271 272 274 276 278 281 283 284 284 286 287 289 291 292 292 293 293 293 295 296 297 296 296 297 298 300
260 260 261 263 263 261 260 260 259 258 259 261 261 262 264 265 267 269 272 275 277 278 279 282 283 284 286 287 289 290 291 292 294 295 295 296 297 298 298 298 299 300 302
260 260 260 261 262 260 259 259 260 260 260 262 263 265 265 266 266 268 271 272 274 277 279 280 281 283 286 288 290 291 292 293 296 297 297 297 298 300 299 300 300 302 303
259 259 258 257 258 257 256 257 258 258 261 263 264 266 266 266 267 269 272 274 274 276 278 281 283 284 286 288 290 292 294 295 297 298 298 299 299 301 302 302 302 303 305
258 258 257 255 256 256 256 257 259 260 261 263 264 265 265 265 267 268 271 273 274 276 279 282 285 287 289 290 291 293 294 295 297 298 299 299 300 301 302 304 305 305 306
260 259 257 256 256 256 256 256 258 260 262 262 263 265 265 266 267 268 270 271 274 277 279 282 285 287 290 291 291 292 293 295 297 298 298 299 299 300 301 303 304 305 306
261 261 260 259 257 257 256 257 259 260 263 264 264 265 265 267 269 268 270 273 274 276 279 282 284 287 290 291 292 292 294 295 296 297 298 299 299 301 302 304 304 305 307
261 262 262 261 259 257 258 259 260 261 263 264 266 266 267 269 270 271 271 272 275 278 280 281 283 286 290 291 292 292 294 295 296 297 299 299 300 301 302 304 305 305 306
261 262 263 262 260 258 258 259 261 263 264 265 265 267 268 269 270 270 272 274 276 277 279 282 284 286 289 291 292 293 294 295 296 296 298 299 300 301 302 304 305 305 305
261 262 262 262 260 259 259 261 263 265 265 266 266 267 268 270 270 270 272 274 276 278 280 282 284 286 288 289 291 293 294 295 295 296 297 298 300 301 302 303 304 305 306
262 262 261 261 261 261 261 262 265 265 266 268 268 268 269 270 271 272 273 275 277 279 281 282 283 285 287 289 290 291 293 294 295 295 296 298 299 300 302 303 304 305 306
261 263 262 260 261 261 262 263 265 266 267 267 269 270 269 270 272 274 276 277 279 280 281 283 284 285 286 288 290 291 291 292 293 294 296 298 299 300 302 303 304 305 306
263 263 264 262 262 263 263 264 266 267 267 268 269 270 270 271 273 275 277 279 280 282 283 283 285 286 287 288 290 291 292 292 293 295 297 299 300 301 302 303 304 305 305
264 265 265 264 264 264 264 265 266 268 269 270 270 271 272 273 274 276 277 279 281 283 283 283 285 287 288 289 290 291 292 293 295 296 298 299 300 301 302 303 303 304 305
265 266 266 266 266 265 265 266 268 268 269 270 271 272 274 275 275 276 278 279 281 282 282 283 285 287 289 290 290 291 292 293 295 296 298 299 300 301 302 302 303 304 305
266 266 267 268 268 267 266 266 267 267 269 270 272 273 274 275 276 276 277 279 281 282 283 284 286 288 290 291 291 292 292 293 295 296 297 299 300 301 302 302 302 303 305